Skip Page Navigation
NASA JPL Caltech
NASA Logo - Jet Propulsion Laboratory + View the NASA Portal
+ Center for Near-Earth Object Studies
JPL Home Earth Solar System Stars & Galaxies Technology
JPL Solar System Dynamics
BODIES ORBITS EPHEMERIDES TOOLS PHYSICAL DATA DISCOVERY FAQ SITE MAP
JPL Small-Body Database Browser
Search: [ help ]  
100235 (1994 PX24)
Classification: Main-belt Asteroid          SPK-ID: 2100235
Ephemeris | Orbit Diagram | Orbital Elements | Mission Design | Physical Parameters | Discovery Circumstances ]

[ show orbit diagram ]
Orbital Elements at Epoch 2459200.5 (2020-Dec-17.0) TDB
Reference: JPL 18 (heliocentric ecliptic J2000)
 Element Value Uncertainty (1-sigma)   Units 
e .1831453391393477 5.1751e-08  
a 2.588437393259368 1.42e-08 au
q 2.114377149029912 1.3895e-07 au
i 1.972007178802123 3.9542e-06 deg
node 93.57742127123953 0.00016598 deg
peri 287.0676045836776 0.00016661 deg
M 80.6196130015914 1.4145e-05 deg
tp 2458859.861969675513
(2020-Jan-11.36196968)
5.8682e-05 TDB
period 1521.090046840025
4.16
1.2517e-05
3.427e-08
d
yr
n .2366723789613105 1.9476e-09 deg/d
Q 3.062497637488824 1.6801e-08 au
  Orbit Determination Parameters
   # obs. used (total)      491  
   data-arc span      9661 days (26.45 yr)  
   first obs. used      1994-08-12  
   last obs. used      2021-01-23  
   planetary ephem.      DE431  
   SB-pert. ephem.      SB431-N16  
   condition code      0  
   norm. resid. RMS      .55914  
   source      ORB  
   producer      Otto Matic  
   solution date      2021-Feb-24 08:24:46  

Additional Information
 Earth MOID = 1.11675 au 
 Jupiter MOID = 2.39733 au 
 T_jup = 3.396 
[ show covariance matrix ]

Ephemeris | Orbit Diagram | Orbital Elements | Mission Design | Physical Parameters | Discovery Circumstances ]

Physical Parameter Table
Parameter Symbol Value Units Sigma Reference Notes
absolute magnitude H 16.5   n/a MPO493563  

100235 (1994 PX24)          Discovered 1994-Aug-12 by Elst, E. W. at La Silla
Reference: 20051019/Numbers.arcLast Updated: 2005-10-26

Alternate Designations
 1994 PX24 = 1999 YF8 
Ephemeris | Orbit Diagram | Orbital Elements | Mission Design | Physical Parameters | Discovery Circumstances ]
ABOUT SSD CREDITS/AWARDS PRIVACY/COPYRIGHT GLOSSARY LINKS
FirstGov 2021-Mar-03 03:53 UT
(server date/time)  
NASA Home Page
Site Manager:   Ryan S. Park
Webmaster  Alan B. Chamberlin